Location: Monrovia
(34.7865°N, 86.7139°W)
Time: 15:14:20
(UTC+00:00)

Cosmos 1371 Rocket - Pass Details

Date: 14 July 2020
Orbit: 753 x 790 km, 74.0° (Epoch: 13 August)

Event Time Altitude Azimuth Distance (km) Brightness Sun altitude
Rises 03:56:14 0° 337° (NNW) 3,258 8.5 -27.2°
Reaches altitude 10° 03:58:39 10° 333° (NNW) 2,333 7.5 -27.4°
Maximum altitude 04:03:49 54° 257° (WSW) 944 4.4 -28.0°
Enters shadow 04:03:52 54° 254° (WSW) 944 4.4 -28.0°
